Tracking 23099 objects as of 13-May-2021
HD Live streaming from Space Station
objects crossing your sky now

OV1-5 DEB

Track OV1-5 DEB now!
10-day predictions


NORAD ID: 5361
Int'l Code: 1966-025G
Perigee: 791.7 km
Apogee: 838.2 km
Inclination: 144.6 °
Period: 101.0 minutes
Semi major axis: 7185 km
RCS: 0.0096 m2 (small)
Launch date: March 30, 1966
Source: United States (US)
Launch site: AIR FORCE WESTERN TEST RANGE (AFWTR)

Note: This is SATELLITE DEBRIS
aabbcc
Your satellite tracking list
Your tracking list is empty




NASA's NSSDC Master Catalog

Two Line Element Set (TLE):
1 05361U 66025G   21132.54029386  .00001133  00000-0  34713-3 0  9999
2 05361 144.6191 243.5977 0032347 143.0188 217.2735 14.25202232101062
Source of the keplerian elements: AFSPC